Simultaneous Nadir Overpasses (SNOs) Predictions

Prediction of SNOs between FY3D and METOP-C Satellite Orbit:

Table of predicted SNOs for the next 14.0 days since TLE Epoch: 2/19/2022
Index Date (FY3D) Time (FY3D) Lat,Lon (FY3D) SZA (FY3D ) Date (METOP-C) Time (METOP-C) Lat,Lon (METOP-C) SZA (METOP-C ) Distance(km) Time Diff (sec)
1 02/20/2022 07:10:07 -74.46,-114.83 94.47 02/20/2022 07:11:13 -74.44,-111.81 94.63 90.20 66
2 02/20/2022 08:00:48 74.18, 53.22 85.21 02/20/2022 08:01:58 74.13, 54.75 85.08 46.63 70
3 02/20/2022 08:51:31 -74.10,-139.27 94.89 02/20/2022 08:52:42 -74.07,-138.07 94.99 36.78 71
4 02/20/2022 09:42:13 73.86, 28.64 84.83 02/20/2022 09:43:25 73.86, 28.75 84.81 3.59 72
5 02/20/2022 10:32:57 -73.83,-163.99 95.21 02/20/2022 10:34:08 -73.85,-163.94 95.21 2.61 71
6 02/20/2022 11:23:44 73.84, 3.31 84.78 02/20/2022 11:24:47 73.84, 3.36 84.77 1.53 63
7 02/20/2022 12:14:28 -73.81, 170.69 95.26 02/20/2022 12:15:30 -73.83, 170.67 95.25 2.42 62
8 02/20/2022 13:05:15 73.82, -22.01 84.73 02/20/2022 13:06:09 73.82, -22.03 84.73 0.55 54
9 02/20/2022 13:56:00 -73.84, 145.24 95.26 02/20/2022 13:56:52 -73.81, 145.28 95.30 3.13 52
10 02/20/2022 14:46:46 73.79, -47.34 84.68 02/20/2022 14:47:31 73.80, -47.42 84.68 2.59 45
11 02/20/2022 15:37:31 -73.82, 119.92 95.31 02/20/2022 15:38:14 -73.79, 119.89 95.34 2.90 43
12 02/20/2022 16:28:18 73.82, -72.78 84.69 02/20/2022 16:28:52 73.82, -72.69 84.68 2.83 34
13 02/20/2022 17:19:02 -73.79, 94.59 95.36 02/20/2022 17:19:35 -73.82, 94.62 95.34 3.02 33
14 02/20/2022 18:09:49 73.80, -98.11 84.64 02/20/2022 18:10:14 73.80, -98.08 84.64 1.05 25
15 02/20/2022 19:00:34 -73.82, 69.15 95.36 02/20/2022 19:00:57 -73.80, 69.23 95.39 3.35 23
16 02/20/2022 19:51:20 73.77,-123.43 84.58 02/20/2022 19:51:36 73.78,-123.47 84.59 1.61 16
17 02/20/2022 20:42:04 -73.80, 43.83 95.41 02/20/2022 20:42:18 -73.78, 43.84 95.43 2.20 14
18 02/20/2022 21:32:50 73.75,-148.76 84.53 02/20/2022 21:32:57 73.76,-148.87 84.55 3.53 7
19 02/20/2022 22:23:35 -73.77, 18.50 95.46 02/20/2022 22:23:40 -73.76, 18.45 95.47 2.58 5
20 02/20/2022 23:14:22 73.78,-174.20 84.54 02/20/2022 23:14:18 73.79,-174.14 84.55 2.38 4
21 02/21/2022 00:05:06 -73.75, -6.83 95.51 02/21/2022 00:05:01 -73.78, -6.83 95.47 3.70 5
22 02/21/2022 00:55:53 73.75, 160.47 84.49 02/21/2022 00:55:40 73.77, 160.47 84.50 1.51 13
23 02/21/2022 01:46:38 -73.78, -32.27 95.51 02/21/2022 01:46:23 -73.76, -32.22 95.52 2.29 15
24 02/21/2022 02:37:24 73.73, 135.15 84.44 02/21/2022 02:37:02 73.74, 135.08 84.46 2.68 22
25 02/21/2022 03:28:09 -73.75, -57.59 95.56 02/21/2022 03:27:45 -73.74, -57.61 95.56 1.45 24
26 02/21/2022 04:18:56 73.76, 109.70 84.44 02/21/2022 04:18:24 73.72, 109.69 84.41 3.67 32
27 02/21/2022 05:09:40 -73.73, -82.92 95.61 02/21/2022 05:09:07 -73.72, -83.00 95.61 2.66 33
28 02/21/2022 06:00:27 73.73, 84.38 84.39 02/21/2022 05:59:45 73.75, 84.42 84.41 2.39 42
29 02/21/2022 06:51:12 -73.76,-108.36 95.60 02/21/2022 06:50:28 -73.75,-108.27 95.61 3.12 44
30 02/21/2022 07:41:58 73.71, 59.05 84.34 02/21/2022 07:41:07 73.73, 59.03 84.37 2.38 51
31 02/21/2022 08:32:43 -73.73,-133.69 95.65 02/21/2022 08:31:50 -73.73,-133.66 95.65 1.26 53
32 02/21/2022 09:23:30 73.74, 33.61 84.34 02/21/2022 09:22:29 73.71, 33.64 84.32 3.20 61
33 02/21/2022 10:14:14 -73.71,-159.02 95.70 02/21/2022 10:13:12 -73.71,-159.05 95.70 1.24 62
34 02/21/2022 11:05:01 73.71, 8.28 84.29 02/21/2022 11:03:51 73.69, 8.25 84.28 3.14 70
35 02/21/2022 11:55:45 -73.69, 175.66 95.76 02/21/2022 11:54:34 -73.68, 175.56 95.74 3.09 71
36 02/21/2022 12:46:28 73.49, -16.57 84.02 02/21/2022 12:45:16 73.52, -17.49 84.10 29.00 72
37 02/21/2022 13:37:12 -73.47, 150.80 96.02 02/21/2022 13:36:00 -73.46, 149.71 95.96 34.28 72
38 02/21/2022 14:27:52 73.12, -41.11 83.59 02/21/2022 14:26:45 73.14, -43.66 83.75 82.32 67
39 02/21/2022 15:18:36 -73.10, 126.25 96.45 02/21/2022 15:17:29 -73.09, 123.55 96.32 87.45 67



Historial Predications of SNOs between FY3D and METOP-C
